Weather reports worldwide

Advertisment
Harzgerode, Germany (10458): temperature & dewpoint: 19.08.2019 08:00:00 - 25.08.2019 08:00:00 (CEST)Harzgerode, Germany (10458): temperature 5cm & temperature -5cm: 19.08.2019 08:00:00 - 25.08.2019 08:00:00 (CEST)Harzgerode, Germany (10458): temperature -20cm & temperature -100cm: 19.08.2019 08:00:00 - 25.08.2019 08:00:00 (CEST)Harzgerode, Germany (10458): wind speed & gusts: 19.08.2019 08:00:00 - 25.08.2019 08:00:00 (CEST)Harzgerode, Germany (10458): wind direction: 19.08.2019 08:00:00 - 25.08.2019 08:00:00 (CEST)Harzgerode, Germany (10458): reduced air pressure: 19.08.2019 08:00:00 - 25.08.2019 08:00:00 (CEST)Harzgerode, Germany (10458): visibility: 19.08.2019 08:00:00 - 25.08.2019 08:00:00 (CEST)Harzgerode, Germany (10458): sunshine duration: 19.08.2019 08:00:00 - 25.08.2019 08:00:00 (CEST)Harzgerode, Germany (10458): precipitation: 19.08.2019 08:00:00 - 25.08.2019 08:00:00 (CEST)
Date & Time tt [°C] td [°C] tt 5cm [°C] tt -5cm [°C] tt -20cm [°C] tt -100cm [°C] ff [km/h] ff [kn] fx [km/h] fx [kn] dd ppp [hPa] vv [km] sd [min] rr [mm]
25.08.2019 08:00:00 - - - - - - - - - - - - - - -
25.08.2019 07:00:00 13,4 11,6 12,6 17,2 17,6 17,6 3 2 8 5 E 1021,1 19 0 0,0
25.08.2019 06:00:00 13,3 11,6 12,3 17,5 17,8 17,6 3 1 11 6 NNW 1020,9 18 0 0,0
25.08.2019 05:00:00 13,3 11,3 12,2 17,8 18,0 17,6 7 4 27 15 W 1021,2 17 0 0,0
25.08.2019 04:00:00 13,9 11,4 12,5 18,3 18,2 17,6 2 1 8 5 NNE 1021,1 19 0 0,0
25.08.2019 03:00:00 14,7 11,6 13,4 18,8 18,4 17,6 2 1 10 5 NW 1021,3 23 0 0,0
25.08.2019 02:00:00 15,3 12,1 13,9 19,3 18,6 17,6 3 2 6 4 NE 1021,5 25 0 0,0
25.08.2019 01:00:00 18,2 13,0 14,4 20,0 18,8 17,6 5 3 16 8 E 1021,1 35 0 0,0
25.08.2019 00:00:00 19,8 12,9 17,7 20,7 19,0 17,6 11 6 19 10 E 1020,8 38 0 0,0
24.08.2019 23:00:00 20,7 12,4 18,3 21,4 19,2 17,6 13 7 19 11 E 1020,8 41 0 0,0
24.08.2019 22:00:00 21,8 11,8 19,9 22,2 19,3 17,6 15 8 21 11 E 1020,7 42 0 0,0
24.08.2019 21:00:00 22,7 11,8 20,0 23,4 19,4 17,6 13 7 22 12 E 1020,5 41 0 0,0
24.08.2019 20:00:00 24,3 11,4 22,8 25,2 19,3 17,6 14 8 26 14 E 1020,1 40 44 0,0
24.08.2019 19:00:00 26,0 10,0 26,8 27,1 19,1 17,6 15 8 29 15 E 1019,9 48 60 0,0
24.08.2019 18:00:00 26,4 9,5 28,9 28,7 18,8 17,6 21 11 32 18 E 1020,1 39 60 0,0
24.08.2019 17:00:00 27,3 9,9 31,7 29,8 18,4 17,6 13 7 30 16 ENE 1020,3 38 60 0,0
24.08.2019 16:00:00 26,5 9,7 31,0 30,2 17,9 17,6 14 8 34 18 E 1020,8 65 60 0,0
24.08.2019 15:00:00 27,2 10,3 32,7 29,7 17,4 17,5 10 5 31 17 E 1021,1 40 60 0,0
24.08.2019 14:00:00 25,5 11,1 31,1 28,5 17,0 17,5 16 9 32 17 ENE 1021,8 43 60 0,0
24.08.2019 13:00:00 24,2 11,2 30,0 27,0 16,6 17,5 17 9 33 18 ESE 1022,3 46 60 0,0
24.08.2019 12:00:00 23,3 12,4 28,3 25,0 16,3 17,5 20 11 33 18 ENE 1022,8 51 60 0,0
24.08.2019 11:00:00 22,0 12,2 26,4 23,0 16,1 17,5 17 9 29 15 E 1023,2 60 60 0,0
24.08.2019 10:00:00 20,8 12,3 24,5 20,7 16,1 17,5 12 6 20 11 NE 1023,4 43 60 0,0
24.08.2019 09:00:00 19,3 11,6 21,7 17,9 16,2 17,5 9 5 15 8 ENE 1023,8 40 60 0,0
24.08.2019 08:00:00 12,4 8,5 13,8 15,4 16,4 17,5 3 1 10 5 NNE 1024,9 39 60 0,0
24.08.2019 07:00:00 9,1 7,1 8,5 14,7 16,7 17,5 8 4 10 5 WSW 1025,6 29 7 0,0
24.08.2019 06:00:00 8,8 6,8 7,7 15,0 16,9 17,5 10 5 11 6 WSW 1025,5 30 0 0,0
24.08.2019 05:00:00 9,3 7,0 7,9 15,5 17,2 17,5 9 5 11 6 WSW 1025,6 35 0 0,0
24.08.2019 04:00:00 10,1 7,2 8,7 16,0 17,5 17,5 10 5 12 6 WSW 1025,6 34 0 0,0
24.08.2019 03:00:00 10,2 7,2 8,9 16,5 17,8 17,5 10 5 12 7 WSW 1025,7 36 0 0,0
24.08.2019 02:00:00 10,8 7,2 9,5 17,2 18,1 17,5 9 5 13 7 WSW 1025,7 38 0 0,0
24.08.2019 01:00:00 11,7 7,5 10,1 17,9 18,3 17,5 10 5 12 7 WSW 1025,8 39 0 0,0
24.08.2019 00:00:00 12,8 7,9 11,0 18,7 18,6 17,5 7 4 11 6 SW 1025,7 45 0 0,0
23.08.2019 23:00:00 14,5 8,2 11,3 19,6 18,8 17,5 7 4 11 6 WSW 1025,4 43 0 0,0
23.08.2019 22:00:00 16,7 7,7 12,0 20,8 19,0 17,5 2 1 9 5 SE 1025,0 53 0 0,0
23.08.2019 21:00:00 19,5 7,0 13,8 22,5 19,1 17,5 5 3 12 6 ENE 1024,6 52 0 0,0
23.08.2019 20:00:00 23,3 6,9 20,6 24,9 19,0 17,5 7 4 20 11 NE 1023,5 47 51 0,0
23.08.2019 19:00:00 25,0 6,0 26,3 27,1 18,8 17,5 12 7 22 12 NE 1023,5 53 60 0,0
23.08.2019 18:00:00 25,9 6,5 29,2 28,8 18,5 17,5 12 7 23 12 ENE 1023,6 44 60 0,0
23.08.2019 17:00:00 26,0 6,4 30,9 29,9 18,1 17,5 11 6 24 13 ENE 1023,7 53 60 0,0
23.08.2019 16:00:00 26,6 6,3 31,3 30,3 17,6 17,5 7 4 30 16 E 1024,0 50 60 0,0
23.08.2019 15:00:00 26,1 6,6 32,0 30,1 17,0 17,5 13 7 24 13 ESE 1024,2 52 60 0,0
23.08.2019 14:00:00 25,4 6,6 31,8 29,2 16,5 17,5 12 7 24 13 ENE 1024,8 40 60 0,0
23.08.2019 13:00:00 24,7 6,7 30,0 27,4 16,0 17,5 11 6 24 13 ESE 1025,3 75 60 0,0
23.08.2019 12:00:00 24,1 5,9 29,7 25,4 15,7 17,5 13 7 25 14 E 1025,7 50 60 0,0
23.08.2019 11:00:00 23,0 6,5 28,4 23,2 15,5 17,5 10 6 16 9 ENE 1026,1 45 60 0,0
23.08.2019 10:00:00 22,5 7,6 24,9 20,3 15,4 17,5 5 3 13 7 S 1026,2 65 60 0,0
23.08.2019 09:00:00 17,9 8,3 20,1 16,9 15,5 17,5 6 3 12 7 WSW 1026,8 45 60 0,0
23.08.2019 08:00:00 13,1 7,4 13,9 14,6 15,8 17,5 9 5 12 7 SW 1027,4 40 60 0,0
23.08.2019 07:00:00 8,9 6,4 8,3 13,7 16,0 17,5 11 6 13 7 WSW 1028,0 40 9 0,0
23.08.2019 06:00:00 8,0 5,9 6,9 13,9 16,3 17,5 11 6 12 7 WSW 1028,0 37 0 0,0
23.08.2019 05:00:00 8,0 5,9 6,7 14,4 16,6 17,5 10 6 13 7 WSW 1027,9 40 0 0,0
23.08.2019 04:00:00 8,3 5,8 6,9 14,9 16,9 17,5 9 5 11 6 SW 1027,6 35 0 0,0
23.08.2019 03:00:00 9,0 6,0 7,6 15,5 17,1 17,5 9 5 11 6 WSW 1027,7 34 0 0,0
23.08.2019 02:00:00 9,7 6,2 8,2 16,1 17,4 17,5 9 5 12 6 WSW 1027,7 41 0 0,0
23.08.2019 01:00:00 10,3 6,5 8,9 16,8 17,7 17,5 8 5 12 6 WSW 1027,7 36 0 0,0
23.08.2019 00:00:00 11,8 7,0 10,1 17,6 18,0 17,5 9 5 12 7 WSW 1027,2 36 0 0,0
22.08.2019 23:00:00 12,4 7,7 10,8 18,6 18,2 17,5 9 5 12 7 WSW 1027,0 44 0 0,0
22.08.2019 22:00:00 15,3 7,1 11,5 19,8 18,4 17,5 5 3 10 5 SSW 1026,5 46 0 0,0
22.08.2019 21:00:00 18,2 6,5 12,3 21,6 18,4 17,5 5 3 17 9 ESE 1025,5 47 0 0,0
22.08.2019 20:00:00 21,5 6,4 19,8 24,1 18,4 17,6 13 7 21 11 SE 1024,6 48 52 0,0
22.08.2019 19:00:00 23,4 5,6 25,0 26,3 18,1 17,6 6 3 14 7 SE 1024,3 50 60 0,0
22.08.2019 18:00:00 24,0 5,1 26,8 27,9 17,8 17,6 7 4 18 10 S 1024,3 57 60 0,0
22.08.2019 17:00:00 23,9 5,5 27,9 29,1 17,3 17,6 8 5 26 14 SW 1024,6 43 60 0,0
22.08.2019 16:00:00 24,4 6,0 28,7 29,3 16,8 17,6 11 6 24 13 ESE 1024,7 39 60 0,0
22.08.2019 15:00:00 23,8 5,6 28,9 29,0 16,2 17,6 10 5 25 14 SE 1025,1 36 60 0,0
22.08.2019 14:00:00 23,1 5,0 29,0 27,9 15,6 17,6 8 4 29 15 ESE 1025,6 48 60 0,0
22.08.2019 13:00:00 22,2 5,2 27,8 26,0 15,1 17,6 14 7 30 16 E 1026,1 45 59 0,0
22.08.2019 12:00:00 21,9 5,5 26,8 23,6 14,7 17,6 13 7 27 14 ESE 1026,7 62 60 0,0
22.08.2019 11:00:00 21,2 6,7 24,8 20,9 14,4 17,6 11 6 24 13 S 1027,1 41 60 0,0
22.08.2019 10:00:00 19,9 7,5 22,1 18,1 14,4 17,6 13 7 21 11 SSE 1027,4 51 60 0,0
22.08.2019 09:00:00 15,4 8,1 17,6 14,9 14,5 17,6 6 4 9 5 WSW 1028,2 41 60 0,0
22.08.2019 08:00:00 9,5 5,9 10,7 12,4 14,7 17,6 8 4 11 6 WSW 1029,1 46 60 0,0
22.08.2019 07:00:00 6,0 4,6 5,8 11,5 15,0 17,6 10 5 12 6 WSW 1029,6 38 7 0,0
22.08.2019 06:00:00 5,5 4,2 4,6 11,8 15,3 17,6 10 5 11 6 WSW 1029,6 35 0 0,0
22.08.2019 05:00:00 6,1 4,6 5,0 12,3 15,6 17,6 9 5 12 7 WSW 1029,6 36 0 0,0
22.08.2019 04:00:00 6,4 4,9 5,5 12,8 15,9 17,6 9 5 12 6 WSW 1029,7 38 0 0,0
22.08.2019 03:00:00 6,8 5,2 5,9 13,4 16,2 17,6 9 5 11 6 WSW 1029,9 34 0 0,0
22.08.2019 02:00:00 8,0 5,8 6,8 14,0 16,5 17,6 8 5 10 6 WSW 1029,8 39 0 0,0
22.08.2019 01:00:00 8,7 6,4 7,4 14,7 16,8 17,6 8 4 11 6 WSW 1029,9 38 0 0,0
22.08.2019 00:00:00 9,4 6,9 8,4 15,5 17,0 17,6 7 4 10 6 WSW 1029,8 43 0 0,0
21.08.2019 23:00:00 10,8 7,0 9,0 16,3 17,3 17,6 8 5 10 5 W 1029,5 44 0 0,0
21.08.2019 22:00:00 13,0 6,4 9,5 17,4 17,4 17,6 5 3 10 6 ENE 1029,1 53 0 0,0
21.08.2019 21:00:00 15,6 6,2 12,1 18,8 17,5 17,6 7 4 13 7 NE 1028,4 51 0 0,0
21.08.2019 20:00:00 17,8 6,3 16,4 20,5 17,5 17,6 8 5 15 8 NE 1027,7 44 17 0,0
21.08.2019 19:00:00 19,4 5,8 19,6 22,0 17,4 17,6 8 4 16 9 N 1027,3 63 26 0,0
21.08.2019 18:00:00 20,1 5,8 22,6 23,7 17,1 17,6 11 6 19 10 N 1027,2 43 51 0,0
21.08.2019 17:00:00 20,3 6,1 24,9 22,9 16,8 17,6 9 5 21 12 ENE 1027,2 58 27 0,0
21.08.2019 16:00:00 - - 22,0 25,1 16,4 17,6 10 5 23 13 ENE - 56 35 0,0
21.08.2019 15:00:00 20,8 7,4 30,0 25,8 16,0 17,6 11 6 21 11 NNW 1027,2 43 39 0,0
21.08.2019 14:00:00 19,4 6,4 23,4 23,0 15,6 17,6 9 5 23 12 WNW 1027,6 50 10 0,0
21.08.2019 13:00:00 18,4 6,8 22,4 23,5 15,2 17,6 10 5 22 12 ENE 1027,9 59 35 0,0
21.08.2019 12:00:00 18,8 8,9 27,3 22,2 14,9 17,6 10 5 21 11 E 1028,0 39 42 0,0
21.08.2019 11:00:00 16,8 8,9 20,0 19,4 14,7 17,6 9 5 20 11 NNE 1028,3 50 34 0,0
21.08.2019 10:00:00 16,6 8,9 21,9 17,9 14,7 17,6 12 7 19 11 N 1028,4 35 60 0,0
21.08.2019 09:00:00 15,7 8,6 18,8 15,6 14,8 17,6 4 2 10 5 W 1028,3 47 60 0,0
21.08.2019 08:00:00 11,6 8,2 13,3 13,4 15,0 17,6 7 4 11 6 WSW 1028,6 37 60 0,0
21.08.2019 07:00:00 8,2 6,8 7,7 12,5 15,2 17,6 10 6 14 8 WSW 1028,7 34 7 0,0
21.08.2019 06:00:00 7,5 6,1 6,7 13,0 15,5 17,6 11 6 16 8 WSW 1028,3 30 0 0,0
21.08.2019 05:00:00 8,5 6,7 8,0 13,5 15,7 17,6 10 6 13 7 WSW 1027,8 35 0 0,0
21.08.2019 04:00:00 11,1 8,5 8,4 13,9 16,0 17,6 5 3 10 5 NNE 1027,1 38 0 0,0
21.08.2019 03:00:00 11,0 7,0 9,0 14,4 16,2 17,6 7 4 12 6 W 1026,7 42 0 0,0
21.08.2019 02:00:00 11,7 7,0 8,3 15,2 16,5 17,6 4 2 10 5 WNW 1026,4 47 0 0,0
21.08.2019 01:00:00 12,4 7,1 9,5 15,8 16,7 17,6 6 4 9 5 SW 1025,6 52 0 0,0
21.08.2019 00:00:00 13,5 7,1 11,7 16,6 16,9 17,6 5 3 9 5 SSW 1025,3 49 0 0,0
20.08.2019 23:00:00 14,3 6,9 13,3 17,2 17,1 17,6 7 4 16 8 SW 1024,7 49 0 0,0
20.08.2019 22:00:00 15,0 7,0 14,0 17,9 17,2 17,6 9 5 14 8 WSW 1024,5 49 0 0,0
20.08.2019 21:00:00 15,7 7,1 14,7 18,7 17,3 17,6 8 4 11 6 W 1024,0 45 0 0,0
20.08.2019 20:00:00 17,4 5,9 16,1 19,6 17,4 17,6 3 2 13 7 WNW 1022,9 59 0 0,0
20.08.2019 19:00:00 18,4 6,0 18,1 20,7 17,3 17,6 4 2 13 7 WNW 1022,5 50 0 0,0
20.08.2019 18:00:00 19,0 6,4 19,1 21,5 17,2 17,6 8 5 23 13 WSW 1022,3 64 0 0,0
20.08.2019 17:00:00 19,7 4,7 20,3 22,6 17,0 17,6 12 6 22 12 SW 1021,8 64 0 0,0
20.08.2019 16:00:00 20,3 5,0 22,1 23,6 16,7 17,6 14 8 23 12 WSW 1021,5 31 0 0,0
20.08.2019 15:00:00 20,9 6,5 23,7 24,1 16,4 17,6 7 4 26 14 S 1021,3 64 0 0,0
20.08.2019 14:00:00 20,8 6,4 24,0 24,1 16,0 17,6 15 8 24 13 SSW 1021,4 48 31 0,0
20.08.2019 13:00:00 19,7 9,2 23,8 22,1 15,8 17,6 6 3 16 9 ENE 1021,7 43 0 0,0
20.08.2019 12:00:00 19,2 9,2 21,5 21,5 15,5 17,6 9 5 16 9 ENE 1021,5 52 9 0,0
20.08.2019 11:00:00 19,0 8,7 24,5 20,9 15,3 17,6 9 5 18 10 NE 1021,3 73 54 0,0
20.08.2019 10:00:00 18,3 8,4 23,4 18,9 15,2 17,6 9 5 15 8 NE 1021,4 43 60 0,0
20.08.2019 09:00:00 17,2 8,7 20,2 16,4 15,3 17,6 8 5 13 7 N 1021,1 44 60 0,0
20.08.2019 08:00:00 12,6 8,4 14,5 14,1 15,5 17,6 5 3 15 8 WNW 1021,7 49 49 0,0
20.08.2019 07:00:00 8,9 7,5 8,2 13,5 15,8 17,6 10 6 13 7 WSW 1021,9 44 0 0,0
20.08.2019 06:00:00 8,6 7,3 7,8 14,0 16,0 17,6 10 5 13 7 WSW 1021,7 43 0 0,0
20.08.2019 05:00:00 10,0 8,0 10,1 14,5 16,3 17,6 9 5 12 6 WSW 1021,4 47 0 0,0
20.08.2019 04:00:00 9,3 7,7 9,0 14,6 16,5 17,6 8 5 12 6 WSW 1021,5 43 0 0,0
20.08.2019 03:00:00 9,3 7,5 8,9 15,1 16,8 17,6 8 5 10 6 WSW 1021,5 55 0 0,0
20.08.2019 02:00:00 10,8 8,0 10,2 15,2 17,1 17,6 8 4 12 7 SW 1021,3 55 0 0,0
20.08.2019 01:00:00 9,7 7,3 8,8 15,6 17,4 17,6 10 5 13 7 WSW 1021,1 53 0 0,0
20.08.2019 00:00:00 10,0 7,7 9,2 16,4 17,7 17,6 10 5 11 6 WSW 1020,7 52 0 0,0
19.08.2019 23:00:00 11,4 8,4 9,5 17,3 18,0 17,6 5 3 11 6 SSW 1020,2 52 0 0,0
19.08.2019 22:00:00 13,8 7,5 9,7 18,5 18,2 17,6 4 2 9 5 W 1019,5 56 0 0,0
19.08.2019 21:00:00 15,6 7,5 11,7 20,1 18,3 17,6 2 1 12 7 N 1018,9 64 0 0,0
19.08.2019 20:00:00 19,3 6,4 17,7 22,2 18,3 17,6 6 3 24 13 W 1017,8 63 48 0,0
19.08.2019 19:00:00 20,7 6,1 21,4 24,0 18,1 17,6 13 7 33 18 W 1017,1 50 49 0,0
19.08.2019 18:00:00 21,0 6,5 22,7 25,1 17,8 17,6 11 6 31 17 W 1016,8 53 40 0,0
19.08.2019 17:00:00 21,2 6,1 23,7 26,3 17,5 17,6 18 10 35 19 WSW 1016,7 55 41 0,0
19.08.2019 16:00:00 21,3 6,4 25,7 27,1 17,0 17,6 19 10 37 20 W 1016,5 57 58 0,0
19.08.2019 15:00:00 21,5 6,2 25,3 26,8 16,5 17,6 21 11 41 22 SW 1016,1 62 60 0,0
19.08.2019 14:00:00 20,9 6,4 25,3 25,0 16,1 17,6 20 11 45 24 WSW 1015,8 52 60 0,0
19.08.2019 13:00:00 19,5 6,6 23,3 22,6 15,9 17,6 27 15 38 21 WSW 1015,9 63 60 0,0
19.08.2019 12:00:00 18,8 8,5 22,4 19,8 15,8 17,6 23 12 45 24 SW 1015,5 54 59 0,0
19.08.2019 11:00:00 16,5 9,0 17,4 17,8 15,7 17,6 26 14 40 21 WSW 1015,9 61 48 0,0
19.08.2019 10:00:00 16,2 10,7 18,0 17,6 15,8 17,6 22 12 37 20 WSW 1015,4 57 57 0,0
19.08.2019 09:00:00 14,5 12,9 13,8 15,9 15,9 17,6 12 6 21 12 WSW 1014,8 36 4 0,0
19.08.2019 08:00:00 13,8 13,1 13,3 15,3 16,1 17,6 8 5 16 9 SW 1014,8 17 0 0,0

tt = temperature
td = dewpoint
tt 5cm = temperature 5cm
tt -5cm = temperature -5cm
tt -20cm = temperature -20cm
tt -100cm = temperature -100cm
ff = wind speed
fx = gusts
dd = wind direction
ppp = reduced air pressure
vv = visibility
sd = sunshine duration
rr = precipitation

Next stations